Weather History for Luqa, Malta

Change the Weather History Date:

Tuesday, March 5, 2013

  Actual Average Record
Temperature  
Mean Temperature 56 °F -  
Max Temperature 60 °F 63 °F 69 °F (2001)
Min Temperature 53 °F 50 °F 46 °F (1998)
Degree Days  
Heating Degree Days 8    
Growing Degree Days 6 (Base 50)    
Moisture  
Dew Point 51 °F    
Average Humidity 81    
Maximum Humidity 94    
Minimum Humidity 69    
Precipitation  
Precipitation 0.00 in 0.05 in - ()
Sea Level Pressure  
Sea Level Pressure 30.13 in    
Wind  
Wind Speed 16 mph ()    
Max Wind Speed 31 mph    
Max Gust Speed 41 mph    
Visibility 6.3 miles    
Events      
Averages and records for this station are not official NWS values.
T = Trace of Precipitation, MM = Missing Value Source: Averaged Metar Reports

Daily Weather History Graph

Daily Weather History Graph

Search for Another Location

Airport:

Trip Planner

Search our weather history database for the weather conditions in past years. The results will help you decide how hot, cold, wet, or windy it might be!

Date:

Astronomy

Mar. 05, 2013 Rise Set
Actual Time 6:26 AM CET 6:00 PM CET
Civil Twilight 6:01 AM CET 6:26 PM CET
Nautical Twilight 5:31 AM CET 6:56 PM CET
Astronomical Twilight 5:02 AM CET 7:25 PM CET
Moon 1:13 AM CET (3/5) 11:31 AM CET (3/5)
Length of Visible Light 12h 25m
Length of Day
11h 33m
Last Quarter, 44% of the Moon is Illuminated
Mar 5
Last Quarter
Mar 11
New
Mar 19
First Quarter
Mar 27
Full
Apr 3
Last Quarter

Hourly Weather History & Observations

Time (CET) Temp. Dew Point Humidity Pressure Visibility Wind Dir Wind Speed Gust Speed Precip Events Conditions
12:15 AM 53.6 °F 51.8 °F 94% 30.15 in 6.2 mi SSE 9.2 mph - N/A   Scattered Clouds
12:45 AM 53.6 °F 51.8 °F 94% 30.15 in 6.2 mi SSE 10.4 mph - N/A   Partly Cloudy
1:00 AM 54 °F 51 °F 88% 30.17 in 6 mi SSE 10.4 mph - -  
1:15 AM 53.6 °F 51.8 °F 94% 30.15 in - SSE 10.4 mph - N/A   Clear
1:45 AM 53.6 °F 51.8 °F 94% 30.15 in 6.2 mi SE 11.5 mph - N/A   Partly Cloudy
2:01 AM 55.4 °F 51.8 °F 88% 30.15 in 6.2 mi SE 12.7 mph - N/A   Mostly Cloudy
2:12 AM 55.4 °F 51.8 °F 88% 30.15 in 6.2 mi SE 13.8 mph - N/A   Overcast
2:15 AM 55.4 °F 51.8 °F 88% 30.15 in 6.2 mi SE 13.8 mph - N/A   Overcast
2:40 AM 55.4 °F 51.8 °F 88% 30.15 in 6.2 mi SE 12.7 mph - N/A   Overcast
2:45 AM 55.4 °F 51.8 °F 88% 30.15 in 6.2 mi SE 12.7 mph - N/A   Scattered Clouds
3:15 AM 55.4 °F 51.8 °F 88% 30.15 in 6.2 mi SE 15.0 mph - N/A   Partly Cloudy
3:36 AM 55.4 °F 51.8 °F 88% 30.15 in 6.2 mi SE 12.7 mph - N/A   Overcast
3:45 AM 55.4 °F 51.8 °F 88% 30.15 in 6.2 mi SE 13.8 mph - N/A   Mostly Cloudy
4:00 AM 55 °F 51 °F 81% 30.17 in 6 mi SSE 12.7 mph - -   Scattered Clouds
4:15 AM 55.4 °F 50.0 °F 82% 30.15 in 6.2 mi SE 15.0 mph - N/A   Partly Cloudy
4:45 AM 53.6 °F 50.0 °F 88% 30.15 in 6.2 mi SSE 12.7 mph - N/A   Partly Cloudy
5:15 AM 53.6 °F 50.0 °F 88% 30.18 in 6.2 mi SSE 12.7 mph - N/A   Partly Cloudy
5:45 AM 55.4 °F 50.0 °F 82% 30.15 in 6.2 mi SE 16.1 mph - N/A   Partly Cloudy
6:15 AM 55.4 °F 50.0 °F 82% 30.18 in 6.2 mi SE 15.0 mph - N/A   Partly Cloudy
6:45 AM 55.4 °F 48.2 °F 77% 30.15 in 6.2 mi SE 18.4 mph - N/A   Partly Cloudy
7:00 AM 55 °F 49 °F 74% 30.17 in 6 mi SE 17.3 mph - -  
7:15 AM 55.4 °F 48.2 °F 77% 30.15 in 6.2 mi SE 17.3 mph - N/A   Partly Cloudy
7:45 AM 55.4 °F 48.2 °F 77% 30.15 in 6.2 mi SE 19.6 mph - N/A   Partly Cloudy
8:15 AM 57.2 °F 50.0 °F 77% 30.18 in 6.2 mi SE 19.6 mph - N/A   Mostly Cloudy
8:45 AM 57.2 °F 50.0 °F 77% 30.18 in 6.2 mi SE 20.7 mph - N/A   Mostly Cloudy
9:15 AM 59.0 °F 50.0 °F 72% 30.18 in 6.2 mi SSE 23.0 mph - N/A   Mostly Cloudy
9:45 AM 59.0 °F 51.8 °F 77% 30.18 in 6.2 mi SE 23.0 mph - N/A   Mostly Cloudy
10:00 AM 58 °F 51 °F 72% 30.18 in 9 mi SSE 20.7 mph - -   Partly Cloudy
10:15 AM 59.0 °F 51.8 °F 77% 30.15 in 6.2 mi SE 24.2 mph - N/A   Mostly Cloudy
10:45 AM 59.0 °F 51.8 °F 77% 30.15 in 6.2 mi SSE 23.0 mph - N/A   Mostly Cloudy
11:15 AM 59.0 °F 51.8 °F 77% 30.15 in 6.2 mi SSE 23.0 mph - N/A   Mostly Cloudy
11:45 AM 59.0 °F 51.8 °F 77% 30.15 in 6.2 mi SSE 21.9 mph - N/A   Mostly Cloudy
12:15 PM 59.0 °F 51.8 °F 77% 30.18 in 6.2 mi SSE 21.9 mph - N/A   Mostly Cloudy
12:45 PM 59.0 °F 51.8 °F 77% 30.15 in 6.2 mi SE 23.0 mph - N/A   Scattered Clouds
1:00 PM 60 °F 52 °F 69% 30.16 in 9 mi SE 23.0 mph - -  
1:15 PM 59.0 °F 51.8 °F 77% 30.12 in 6.2 mi SE 24.2 mph - N/A   Scattered Clouds
1:45 PM 59.0 °F 50.0 °F 72% 30.12 in 6.2 mi SE 23.0 mph - N/A   Partly Cloudy
2:15 PM 59.0 °F 50.0 °F 72% 30.12 in 6.2 mi SE 23.0 mph - N/A   Scattered Clouds
2:45 PM 59.0 °F 51.8 °F 77% 30.12 in 6.2 mi SE 20.7 mph 32.2 mph N/A   Mostly Cloudy
3:15 PM 59.0 °F 51.8 °F 77% 30.12 in 6.2 mi SE 21.9 mph - N/A   Mostly Cloudy
3:45 PM 59.0 °F 51.8 °F 77% 30.12 in 6.2 mi SE 21.9 mph - N/A   Mostly Cloudy
4:00 PM 58 °F 52 °F 75% 30.12 in 9 mi SE 23.0 mph - -   Overcast
4:15 PM 59.0 °F 51.8 °F 77% 30.12 in 6.2 mi SE 20.7 mph - N/A   Mostly Cloudy
4:45 PM 57.2 °F 51.8 °F 82% 30.09 in 6.2 mi SE 21.9 mph - N/A   Mostly Cloudy
5:15 PM 57.2 °F 51.8 °F 82% 30.09 in 6.2 mi SE 20.7 mph - N/A   Scattered Clouds
5:45 PM 57.2 °F 51.8 °F 82% 30.09 in 6.2 mi SE 25.3 mph - N/A   Scattered Clouds
6:15 PM 57.2 °F 51.8 °F 82% 30.09 in 6.2 mi SE 24.2 mph - N/A   Mostly Cloudy
6:36 PM 57.2 °F 51.8 °F 82% 30.06 in 6.2 mi SE 26.5 mph - N/A   Mostly Cloudy
6:45 PM 57.2 °F 51.8 °F 82% 30.06 in 6.2 mi SE 26.5 mph - N/A   Mostly Cloudy
7:00 PM 57 °F 52 °F 79% 30.09 in 6 mi SE 26.5 mph - -   Overcast
7:15 PM 57.2 °F 51.8 °F 82% 30.06 in 6.2 mi SE 26.5 mph - N/A   Mostly Cloudy
7:45 PM 57.2 °F 51.8 °F 82% 30.09 in 6.2 mi SE 25.3 mph - N/A   Mostly Cloudy
8:15 PM 57.2 °F 51.8 °F 82% 30.06 in 6.2 mi SE 26.5 mph - N/A   Mostly Cloudy
8:45 PM 57.2 °F 51.8 °F 82% 30.09 in 6.2 mi SE 26.5 mph - N/A   Mostly Cloudy
9:15 PM 57.2 °F 51.8 °F 82% 30.06 in 6.2 mi SE 29.9 mph - N/A   Mostly Cloudy
9:45 PM 57.2 °F 51.8 °F 82% 30.06 in 6.2 mi SE 29.9 mph 41.4 mph N/A   Overcast
10:00 PM 57 °F 52 °F 79% 30.08 in 6 mi SE 28.8 mph - -   Mostly Cloudy
10:15 PM 57.2 °F 51.8 °F 82% 30.04 in 6.2 mi SE 31.1 mph - N/A   Overcast
10:45 PM 57.2 °F 51.8 °F 82% 30.04 in 6.2 mi SSE 29.9 mph - N/A   Mostly Cloudy
11:15 PM 57.2 °F 51.8 °F 82% 30.04 in 6.2 mi SSE 28.8 mph 41.4 mph N/A   Mostly Cloudy
11:45 PM 57.2 °F 51.8 °F 82% 30.01 in 5.6 mi SE 28.8 mph - N/A   Scattered Clouds